User: anonymous   Login
Location: G�ppingen
(48.7089°N, 9.6563°E)
Time: 02:56:08
(UTC+02:00)
Language:

M-CUBED/EXP-1 PRIME - Orbit

View from above orbital plane
View from above orbital plane
View from above satellite
View from above satellite

Ground track
Ground track

The orbit data is extracted from the following two-line orbital elements,

1 37855U 11061F   19142.94740281  .00000937  00000-0  54781-4 0  9997
2 37855 101.7181  24.8170 0173798 156.0610 204.8807 15.05354856412755
Epoch (UTC): 22 May 2019 22:44:15
Eccentricity: 0.0173798
inclination: 101.7181°
perigee height: 430 km
apogee height: 671 km
right ascension of ascending node: 24.8170°
argument of perigee: 156.0610°
revolutions per day: 15.05354856
mean anomaly at epoch: 204.8807°
orbit number at epoch: 41275

The dashed part of the orbit path shows where the satellite is in the earth's shadow,  

DLR